Find Local Weather

World > North America > United States > Idaho

Stites, Idaho Regional Weather

Lat: 46.09N, Lon: 115.98W
Wx Zone: IDZ007
Feedback

Stites, ID Regional Weather

Expires:201904231800;;372290
ASUS45 KBOI 231710
RWRID 

IDAHO REGIONAL WEATHER ROUNDUP
NATIONAL WEATHER SERVICE BOISE ID
1100 AM MDT TUE APR 23 2019

NOTE: "FAIR" INDICATES FEW OR NO CLOUDS BELOW 12000 FEET
WITH NO SIGNIFICANT WEATHER AND/OR OBSTRUCTIONS TO VISIBILITY


IDZ002-004-006-007-026-231800-
NORTHERN IDAHO

  
CITY           SKY/WX    TMP DP  RH WIND       PRES   REMARKS
LEWISTON       CLOUDY    59  51  75 CALM      30.10F                  
LOWELL           N/A     49  47  93 N3        30.17S                  
COEUR D'ALENE  CLOUDY    57  46  66 VRB7      30.08F                  
MULLAN PASS    CLOUDY    41  37  86 VRB7      30.10S                  
$$
  

SKY/WX - Weather  TMP - Temperature  DP - Dew Point  RH - Relative Humidity
WIND - Wind Direction/Speed PRES - Barometric Pressure VSB - Visibility
WCI - Wind Chill Index E13G22 Wind - East Wind 13 mph/Gusts of 22 mph